Time,TemperatureF,DewpointF,PressureIn,WindDirection,WindDirectionDegrees,WindSpeedMPH,WindSpeedGustMPH,Humidity,HourlyPrecipIn,Conditions,Clouds,dailyrainin,SoftwareType,DateUTC
2013-03-19 00:10:00,41.2,41.2,29.74,SE,143,1.0,5.0,100,0.06,,---,0.00,VWS V14.01,2013-03-19 04:10:00,
2013-03-19 00:20:00,41.3,41.3,29.72,East,86,5.0,7.0,100,0.05,,---,0.00,VWS V14.01,2013-03-19 04:20:00,
2013-03-19 00:30:00,41.5,41.5,29.70,SE,124,3.0,7.0,100,0.04,,---,0.00,VWS V14.01,2013-03-19 04:30:00,
2013-03-19 00:40:00,41.6,41.6,29.70,ESE,116,0.0,6.0,100,0.02,,---,0.00,VWS V14.01,2013-03-19 04:40:00,
2013-03-19 00:50:00,41.8,41.8,29.72,SE,144,0.0,3.0,100,0.01,,---,0.00,VWS V14.01,2013-03-19 04:50:00,
2013-03-19 01:00:00,41.9,41.9,29.73,WSW,254,0.0,4.0,100,0.00,,---,0.00,VWS V14.01,2013-03-19 05:00:00,
2013-03-19 01:10:00,41.9,41.9,29.73,WSW,254,0.0,0.0,100,0.00,,---,0.00,VWS V14.01,2013-03-19 05:10:00,
2013-03-19 01:20:00,41.9,41.9,29.71,WSW,254,0.0,0.0,100,0.00,,---,0.00,VWS V14.01,2013-03-19 05:20:00,
2013-03-19 01:30:00,41.9,41.9,29.71,WSW,254,0.0,0.0,100,0.00,,---,0.00,VWS V14.01,2013-03-19 05:30:00,
2013-03-19 01:40:00,41.8,41.8,29.71,WSW,256,0.0,3.0,100,0.00,,---,0.00,VWS V14.01,2013-03-19 05:40:00,
2013-03-19 01:50:00,41.8,41.8,29.71,WSW,256,0.0,0.0,100,0.00,,---,0.00,VWS V14.01,2013-03-19 05:50:00,
2013-03-19 02:00:00,41.5,41.5,29.72,West,265,0.0,5.0,100,0.00,,---,0.00,VWS V14.01,2013-03-19 06:00:00,
2013-03-19 02:10:00,41.5,41.5,29.72,WSW,257,0.0,3.0,100,0.00,,---,0.00,VWS V14.01,2013-03-19 06:10:00,
2013-03-19 02:20:00,41.2,41.2,29.72,West,275,0.0,5.0,100,0.01,,---,0.01,VWS V14.01,2013-03-19 06:20:00,
2013-03-19 02:30:00,41.1,41.1,29.71,West,261,0.0,3.0,100,0.01,,---,0.01,VWS V14.01,2013-03-19 06:30:00,
2013-03-19 02:40:00,40.9,40.9,29.71,West,261,0.0,1.0,100,0.01,,---,0.01,VWS V14.01,2013-03-19 06:40:00,
2013-03-19 02:50:00,40.9,40.9,29.70,West,261,0.0,0.0,100,0.01,,---,0.01,VWS V14.01,2013-03-19 06:50:00,
2013-03-19 03:00:00,40.9,40.9,29.69,West,261,0.0,0.0,100,0.01,,---,0.01,VWS V14.01,2013-03-19 07:00:00,
2013-03-19 03:10:00,41.1,41.1,29.69,West,261,0.0,0.0,100,0.01,,---,0.01,VWS V14.01,2013-03-19 07:10:00,
2013-03-19 03:20:00,40.9,40.9,29.68,West,261,0.0,0.0,100,0.01,,---,0.01,VWS V14.01,2013-03-19 07:20:00,
2013-03-19 03:30:00,40.9,40.9,29.68,West,261,0.0,0.0,100,0.00,,---,0.01,VWS V14.01,2013-03-19 07:30:00,
2013-03-19 03:40:00,40.9,40.9,29.68,West,261,0.0,0.0,100,0.00,,---,0.01,VWS V14.01,2013-03-19 07:40:00,
2013-03-19 03:50:00,40.9,40.9,29.67,West,261,0.0,0.0,100,0.00,,---,0.01,VWS V14.01,2013-03-19 07:50:00,
2013-03-19 04:00:00,40.9,40.9,29.68,West,261,0.0,0.0,100,0.00,,---,0.01,VWS V14.01,2013-03-19 08:00:00,
2013-03-19 04:10:00,40.9,40.9,29.68,West,261,0.0,0.0,100,0.00,,---,0.01,VWS V14.01,2013-03-19 08:10:00,
2013-03-19 04:20:00,40.8,40.8,29.68,WSW,258,0.0,2.0,100,0.00,,---,0.01,VWS V14.01,2013-03-19 08:20:00,
2013-03-19 04:30:00,40.6,40.6,29.67,WSW,258,0.0,0.0,100,0.00,,---,0.01,VWS V14.01,2013-03-19 08:30:00,
2013-03-19 04:40:00,40.6,40.6,29.67,WSW,258,0.0,0.0,100,0.00,,---,0.01,VWS V14.01,2013-03-19 08:40:00,
2013-03-19 04:50:00,40.5,40.5,29.67,WSW,258,0.0,0.0,100,0.00,,---,0.01,VWS V14.01,2013-03-19 08:50:00,
2013-03-19 05:00:00,40.5,40.5,29.68,WSW,258,0.0,0.0,100,0.00,,---,0.01,VWS V14.01,2013-03-19 09:00:00,
2013-03-19 05:10:00,40.5,40.5,29.68,West,278,0.0,0.0,100,0.00,,---,0.01,VWS V14.01,2013-03-19 09:10:00,
2013-03-19 05:20:00,40.3,40.3,29.69,West,277,0.0,2.0,100,0.00,,---,0.01,VWS V14.01,2013-03-19 09:20:00,
2013-03-19 05:30:00,40.2,40.2,29.68,West,277,0.0,0.0,100,0.00,,---,0.01,VWS V14.01,2013-03-19 09:30:00,
2013-03-19 05:40:00,40.2,40.2,29.68,West,277,0.0,0.0,100,0.00,,---,0.01,VWS V14.01,2013-03-19 09:40:00,
2013-03-19 05:50:00,40.2,40.2,29.69,West,277,0.0,0.0,100,0.00,,---,0.01,VWS V14.01,2013-03-19 09:50:00,
2013-03-19 06:00:00,40.3,40.3,29.69,West,277,0.0,0.0,100,0.00,,---,0.01,VWS V14.01,2013-03-19 10:00:00,
2013-03-19 06:10:00,40.3,40.3,29.69,West,277,0.0,0.0,100,0.00,,---,0.01,VWS V14.01,2013-03-19 10:10:00,
2013-03-19 06:20:00,40.5,40.5,29.69,West,277,0.0,0.0,100,0.00,,---,0.01,VWS V14.01,2013-03-19 10:20:00,
2013-03-19 06:30:00,40.5,40.5,29.69,West,277,0.0,0.0,100,0.00,,---,0.01,VWS V14.01,2013-03-19 10:30:00,
2013-03-19 06:40:00,40.6,40.6,29.69,West,277,0.0,0.0,100,0.00,,---,0.01,VWS V14.01,2013-03-19 10:40:00,
2013-03-19 06:50:00,40.6,40.6,29.69,West,277,0.0,0.0,100,0.00,,---,0.01,VWS V14.01,2013-03-19 10:50:00,
2013-03-19 07:00:00,40.8,40.8,29.69,West,277,0.0,0.0,100,0.00,,---,0.01,VWS V14.01,2013-03-19 11:00:00,
2013-03-19 07:10:00,41.1,41.1,29.69,West,277,0.0,0.0,100,0.00,,---,0.01,VWS V14.01,2013-03-19 11:10:00,
2013-03-19 07:20:00,41.1,41.1,29.69,West,275,0.0,0.0,100,0.00,,---,0.01,VWS V14.01,2013-03-19 11:20:00,
2013-03-19 07:30:00,41.1,41.1,29.68,West,275,0.0,0.0,100,0.00,,---,0.01,VWS V14.01,2013-03-19 11:30:00,
2013-03-19 07:40:00,41.1,41.1,29.68,West,275,0.0,0.0,100,0.00,,---,0.01,VWS V14.01,2013-03-19 11:40:00,
2013-03-19 07:50:00,41.3,41.3,29.68,West,275,0.0,0.0,100,0.00,,---,0.01,VWS V14.01,2013-03-19 11:50:00,
2013-03-19 08:00:00,41.5,41.5,29.69,West,275,0.0,0.0,100,0.00,,---,0.01,VWS V14.01,2013-03-19 12:00:00,
2013-03-19 08:10:00,41.6,41.6,29.69,West,275,0.0,0.0,100,0.00,,---,0.01,VWS V14.01,2013-03-19 12:10:00,
2013-03-19 08:20:00,41.9,41.9,29.70,West,275,0.0,0.0,100,0.00,,---,0.01,VWS V14.01,2013-03-19 12:20:00,
2013-03-19 08:30:00,41.9,41.9,29.71,West,275,0.0,0.0,100,0.00,,---,0.01,VWS V14.01,2013-03-19 12:30:00,
2013-03-19 08:40:00,42.2,42.2,29.71,SSW,199,0.0,0.0,100,0.00,,---,0.01,VWS V14.01,2013-03-19 12:40:00,
2013-03-19 08:50:00,42.5,42.5,29.72,SSE,165,0.0,2.0,100,0.00,,---,0.01,VWS V14.01,2013-03-19 12:50:00,
2013-03-19 09:00:00,42.8,42.8,29.72,West,265,0.0,3.0,100,0.00,,---,0.01,VWS V14.01,2013-03-19 13:00:00,
2013-03-19 09:10:00,43.1,43.1,29.72,SW,234,0.0,3.0,100,0.00,,---,0.01,VWS V14.01,2013-03-19 13:10:00,
2013-03-19 09:20:00,43.3,43.3,29.74,SSW,213,0.0,5.0,100,0.00,,---,0.01,VWS V14.01,2013-03-19 13:20:00,
2013-03-19 09:30:00,43.5,43.5,29.74,WSW,257,0.0,5.0,100,0.00,,---,0.01,VWS V14.01,2013-03-19 13:30:00,
2013-03-19 09:40:00,43.8,43.8,29.74,SSW,210,0.0,6.0,100,0.00,,---,0.01,VWS V14.01,2013-03-19 13:40:00,
2013-03-19 09:50:00,44.1,44.1,29.74,WSW,256,5.0,8.0,100,0.00,,---,0.01,VWS V14.01,2013-03-19 13:50:00,
2013-03-19 10:00:00,44.2,44.2,29.74,WSW,246,0.0,6.0,100,0.00,,---,0.01,VWS V14.01,2013-03-19 14:00:00,
2013-03-19 10:10:00,44.5,44.5,29.74,WSW,244,2.0,5.0,100,0.00,,---,0.01,VWS V14.01,2013-03-19 14:10:00,
2013-03-19 10:20:00,44.8,44.8,29.74,West,272,0.0,4.0,100,0.00,,---,0.01,VWS V14.01,2013-03-19 14:20:00,
2013-03-19 10:30:00,46.0,46.0,29.75,West,271,3.0,6.0,100,0.00,,---,0.01,VWS V14.01,2013-03-19 14:30:00,
2013-03-19 10:40:00,46.7,46.7,29.75,West,278,0.0,3.0,100,0.00,,---,0.01,VWS V14.01,2013-03-19 14:40:00,
2013-03-19 10:50:00,47.1,47.1,29.75,West,261,0.0,6.0,100,0.00,,---,0.01,VWS V14.01,2013-03-19 14:50:00,
2013-03-19 11:00:00,48.0,48.0,29.75,West,268,0.0,5.0,100,0.00,,---,0.01,VWS V14.01,2013-03-19 15:00:00,
2013-03-19 11:10:00,49.4,49.4,29.75,SW,222,5.0,7.0,100,0.00,,---,0.01,VWS V14.01,2013-03-19 15:10:00,
2013-03-19 11:20:00,50.2,49.7,29.75,West,272,8.0,11.0,98,0.00,,---,0.01,VWS V14.01,2013-03-19 15:20:00,
2013-03-19 11:30:00,51.4,50.6,29.75,WNW,282,6.0,8.0,97,0.00,,---,0.01,VWS V14.01,2013-03-19 15:30:00,
2013-03-19 11:40:00,52.3,50.6,29.75,WSW,258,2.0,7.0,94,0.00,,---,0.01,VWS V14.01,2013-03-19 15:40:00,
2013-03-19 11:50:00,53.6,50.4,29.75,SW,234,1.0,5.0,89,0.00,,---,0.01,VWS V14.01,2013-03-19 15:50:00,
2013-03-19 12:00:00,54.7,49.7,29.74,WSW,239,9.0,11.0,83,0.00,,---,0.01,VWS V14.01,2013-03-19 16:00:00,
2013-03-19 12:10:00,55.7,48.3,29.74,WNW,282,0.0,11.0,76,0.00,,---,0.01,VWS V14.01,2013-03-19 16:10:00,
2013-03-19 12:20:00,56.7,47.0,29.74,WNW,292,0.0,7.0,70,0.00,,---,0.01,VWS V14.01,2013-03-19 16:20:00,
2013-03-19 12:30:00,57.6,47.9,29.73,West,270,0.0,7.0,70,0.00,,---,0.01,VWS V14.01,2013-03-19 16:30:00,
2013-03-19 12:40:00,58.6,46.5,29.73,SSW,208,6.0,8.0,64,0.00,,---,0.01,VWS V14.01,2013-03-19 16:40:00,
2013-03-19 12:50:00,59.3,45.0,29.73,SW,227,0.0,8.0,59,0.00,,---,0.01,VWS V14.01,2013-03-19 16:50:00,
2013-03-19 13:00:00,60.5,46.1,29.72,South,184,0.0,6.0,59,0.00,,---,0.01,VWS V14.01,2013-03-19 17:00:00,
2013-03-19 13:10:00,61.2,44.4,29.72,West,272,7.0,8.0,54,0.00,,---,0.01,VWS V14.01,2013-03-19 17:10:00,
2013-03-19 13:20:00,61.6,42.3,29.72,West,267,0.0,12.0,49,0.00,,---,0.01,VWS V14.01,2013-03-19 17:20:00,
2013-03-19 13:30:00,62.4,43.5,29.71,West,271,2.0,7.0,50,0.00,,---,0.01,VWS V14.01,2013-03-19 17:30:00,
2013-03-19 13:40:00,62.4,41.9,29.71,WNW,298,0.0,12.0,47,0.00,,---,0.01,VWS V14.01,2013-03-19 17:40:00,
2013-03-19 13:50:00,62.6,41.5,29.71,West,260,5.0,10.0,46,0.00,,---,0.01,VWS V14.01,2013-03-19 17:50:00,
2013-03-19 14:00:00,62.6,41.5,29.71,WSW,257,2.0,12.0,46,0.00,,---,0.01,VWS V14.01,2013-03-19 18:00:00,
2013-03-19 14:10:00,63.9,43.8,29.71,SSW,208,0.0,5.0,48,0.00,,---,0.01,VWS V14.01,2013-03-19 18:10:00,
2013-03-19 14:20:00,64.7,42.3,29.70,NW,304,7.0,8.0,44,0.00,,---,0.01,VWS V14.01,2013-03-19 18:20:00,
2013-03-19 14:30:00,64.2,41.3,29.70,WSW,237,5.0,8.0,43,0.00,,---,0.01,VWS V14.01,2013-03-19 18:30:00,
2013-03-19 14:40:00,64.8,43.0,29.70,WSW,251,0.0,5.0,45,0.00,,---,0.01,VWS V14.01,2013-03-19 18:40:00,
2013-03-19 14:50:00,65.3,44.0,29.70,South,179,0.0,6.0,46,0.00,,---,0.01,VWS V14.01,2013-03-19 18:50:00,
2013-03-19 15:00:00,65.6,41.9,29.69,WSW,248,3.0,13.0,42,0.00,,---,0.01,VWS V14.01,2013-03-19 19:00:00,
2013-03-19 15:10:00,66.0,41.0,29.69,WSW,243,2.0,9.0,40,0.00,,---,0.01,VWS V14.01,2013-03-19 19:10:00,
2013-03-19 15:20:00,65.8,40.2,29.70,SSW,192,3.0,12.0,39,0.00,,---,0.01,VWS V14.01,2013-03-19 19:20:00,
2013-03-19 15:30:00,66.3,39.3,29.69,West,271,5.0,8.0,37,0.00,,---,0.01,VWS V14.01,2013-03-19 19:30:00,
2013-03-19 15:40:00,66.0,39.7,29.69,WSW,256,0.0,10.0,38,0.00,,---,0.01,VWS V14.01,2013-03-19 19:40:00,
2013-03-19 15:50:00,66.9,41.2,29.69,WSW,244,0.0,8.0,39,0.00,,---,0.01,VWS V14.01,2013-03-19 19:50:00,
2013-03-19 16:00:00,67.3,39.5,29.69,West,264,0.0,7.0,36,0.00,,---,0.01,VWS V14.01,2013-03-19 20:00:00,
2013-03-19 16:10:00,67.3,40.8,29.69,WSW,239,3.0,11.0,38,0.00,,---,0.01,VWS V14.01,2013-03-19 20:10:00,
2013-03-19 16:20:00,66.9,36.1,29.70,SW,227,5.0,13.0,32,0.00,,---,0.01,VWS V14.01,2013-03-19 20:20:00,
2013-03-19 16:30:00,66.3,35.6,29.70,WSW,248,0.0,16.0,32,0.00,,---,0.01,VWS V14.01,2013-03-19 20:30:00,
2013-03-19 16:40:00,67.1,38.6,29.70,SW,236,0.0,7.0,35,0.00,,---,0.01,VWS V14.01,2013-03-19 20:40:00,
2013-03-19 16:50:00,66.9,34.5,29.70,WSW,250,0.0,11.0,30,0.00,,---,0.01,VWS V14.01,2013-03-19 20:50:00,
2013-03-19 17:00:00,66.6,35.8,29.70,West,278,11.0,11.0,32,0.00,,---,0.01,VWS V14.01,2013-03-19 21:00:00,
2013-03-19 17:10:00,66.1,31.2,29.70,SW,226,7.0,18.0,27,0.00,,---,0.01,VWS V14.01,2013-03-19 21:10:00,
2013-03-19 17:20:00,65.8,31.8,29.71,SW,229,6.0,13.0,28,0.00,,---,0.01,VWS V14.01,2013-03-19 21:20:00,
2013-03-19 17:30:00,65.3,31.4,29.72,West,272,3.0,11.0,28,0.00,,---,0.01,VWS V14.01,2013-03-19 21:30:00,
2013-03-19 17:40:00,65.2,32.2,29.72,SSW,208,0.0,12.0,29,0.00,,---,0.01,VWS V14.01,2013-03-19 21:40:00,
2013-03-19 17:50:00,65.0,32.0,29.72,West,267,5.0,14.0,29,0.00,,---,0.01,VWS V14.01,2013-03-19 21:50:00,
2013-03-19 18:00:00,64.8,32.7,29.72,WSW,256,0.0,9.0,30,0.00,,---,0.01,VWS V14.01,2013-03-19 22:00:00,
2013-03-19 18:10:00,64.7,34.2,29.72,NW,311,0.0,6.0,32,0.00,,---,0.01,VWS V14.01,2013-03-19 22:10:00,
2013-03-19 18:20:00,64.5,34.0,29.72,SSW,192,0.0,5.0,32,0.00,,---,0.01,VWS V14.01,2013-03-19 22:20:00,
2013-03-19 18:30:00,64.2,34.5,29.72,SW,234,0.0,6.0,33,0.00,,---,0.01,VWS V14.01,2013-03-19 22:30:00,
2013-03-19 18:40:00,63.9,35.7,29.72,WSW,248,0.0,7.0,35,0.00,,---,0.01,VWS V14.01,2013-03-19 22:40:00,
2013-03-19 18:50:00,63.2,32.9,29.73,South,182,0.0,3.0,32,0.00,,---,0.01,VWS V14.01,2013-03-19 22:50:00,
2013-03-19 19:00:00,62.9,31.0,29.74,SSW,202,6.0,10.0,30,0.00,,---,0.01,VWS V14.01,2013-03-19 23:00:00,
2013-03-19 19:10:00,62.6,29.9,29.74,West,280,6.0,14.0,29,0.00,,---,0.01,VWS V14.01,2013-03-19 23:10:00,
2013-03-19 19:20:00,62.1,30.3,29.75,West,260,1.0,12.0,30,0.00,,---,0.01,VWS V14.01,2013-03-19 23:20:00,
2013-03-19 19:30:00,61.8,30.1,29.76,WSW,254,5.0,14.0,30,0.00,,---,0.01,VWS V14.01,2013-03-19 23:30:00,
2013-03-19 19:40:00,61.3,28.8,29.76,WSW,247,2.0,7.0,29,0.00,,---,0.01,VWS V14.01,2013-03-19 23:40:00,
2013-03-19 19:50:00,61.0,29.4,29.77,SW,220,0.0,5.0,30,0.00,,---,0.01,VWS V14.01,2013-03-19 23:50:00,
2013-03-19 20:00:00,60.4,28.9,29.77,WSW,257,0.0,3.0,30,0.00,,---,0.01,VWS V14.01,2013-03-20 00:00:00,
2013-03-19 20:10:00,59.9,30.0,29.77,West,260,0.0,6.0,32,0.00,,---,0.01,VWS V14.01,2013-03-20 00:10:00,
2013-03-19 20:20:00,59.3,29.5,29.77,West,267,0.0,3.0,32,0.00,,---,0.01,VWS V14.01,2013-03-20 00:20:00,
2013-03-19 20:30:00,58.7,29.7,29.78,West,274,0.0,0.0,33,0.00,,---,0.01,VWS V14.01,2013-03-20 00:30:00,
2013-03-19 20:40:00,58.1,30.6,29.78,West,274,0.0,1.0,35,0.00,,---,0.01,VWS V14.01,2013-03-20 00:40:00,
2013-03-19 20:50:00,57.8,31.0,29.79,West,274,0.0,0.0,36,0.00,,---,0.01,VWS V14.01,2013-03-20 00:50:00,
2013-03-19 21:00:00,57.2,31.2,29.80,WSW,258,0.0,0.0,37,0.00,,---,0.01,VWS V14.01,2013-03-20 01:00:00,
2013-03-19 21:10:00,56.9,32.2,29.80,West,271,0.0,0.0,39,0.00,,---,0.01,VWS V14.01,2013-03-20 01:10:00,
2013-03-19 21:20:00,56.7,32.0,29.81,WSW,247,0.0,4.0,39,0.00,,---,0.01,VWS V14.01,2013-03-20 01:20:00,
2013-03-19 21:30:00,56.5,32.5,29.82,WSW,247,0.0,3.0,40,0.00,,---,0.01,VWS V14.01,2013-03-20 01:30:00,
2013-03-19 21:40:00,56.0,32.0,29.82,WSW,251,0.0,5.0,40,0.00,,---,0.01,VWS V14.01,2013-03-20 01:40:00,
2013-03-19 21:50:00,56.0,32.0,29.83,WSW,240,0.0,5.0,40,0.00,,---,0.01,VWS V14.01,2013-03-20 01:50:00,
2013-03-19 22:00:00,56.0,31.4,29.83,WSW,254,2.0,6.0,39,0.00,,---,0.01,VWS V14.01,2013-03-20 02:00:00,
2013-03-19 22:10:00,56.0,32.0,29.83,WSW,254,0.0,3.0,40,0.00,,---,0.01,VWS V14.01,2013-03-20 02:10:00,
2013-03-19 22:20:00,55.4,31.5,29.84,SW,229,1.0,5.0,40,0.00,,---,0.01,VWS V14.01,2013-03-20 02:20:00,
2013-03-19 22:30:00,55.7,29.2,29.84,NW,309,2.0,12.0,36,0.00,,---,0.01,VWS V14.01,2013-03-20 02:30:00,
2013-03-19 22:40:00,55.4,27.5,29.84,WSW,243,0.0,7.0,34,0.00,,---,0.01,VWS V14.01,2013-03-20 02:40:00,
2013-03-19 22:50:00,55.0,27.9,29.85,West,265,3.0,7.0,35,0.00,,---,0.01,VWS V14.01,2013-03-20 02:50:00,
2013-03-19 23:00:00,54.7,25.4,29.85,SW,226,0.0,6.0,32,0.00,,---,0.01,VWS V14.01,2013-03-20 03:00:00,
2013-03-19 23:10:00,54.4,25.9,29.85,West,261,0.0,6.0,33,0.00,,---,0.01,VWS V14.01,2013-03-20 03:10:00,
2013-03-19 23:20:00,53.9,23.2,29.86,West,263,0.0,10.0,30,0.00,,---,0.01,VWS V14.01,2013-03-20 03:20:00,
2013-03-19 23:30:00,53.5,21.2,29.86,West,260,2.0,7.0,28,0.00,,---,0.01,VWS V14.01,2013-03-20 03:30:00,
2013-03-19 23:40:00,53.3,20.2,29.86,West,270,3.0,11.0,27,0.00,,---,0.01,VWS V14.01,2013-03-20 03:40:00,
2013-03-19 23:50:00,53.1,20.9,29.87,West,275,2.0,6.0,28,0.00,,---,0.01,VWS V14.01,2013-03-20 03:50:00,